STARLINK-31392, 59530

Orbit data source: Space-Track

STARLINK-31392, 59530 is a payload satellite owned by SpaceX/Seattle (US) in LEO that was launched on Wed, 17 Apr 2024 UTC via an FALCON 9 launch vehicle from the Air Force Eastern Test Range (AFETR). Payload-class satellites include a variety of spacecraft equipped with specific instruments for various scientific and technological missions. These include communications satellites like Starlink; space stations such as the ISS; scientific satellites like the Hubble; Earth observation satellites from companies like Planet Labs, Umbra, and HawkEye 360; GPS; miniature CubeSats for education and research; and military/defense satellites.

Loading next visibility...
Identifier
59530, 2024-073V
Orbit
LEO
Country
Flag of USUS
Related business
Manufacturer
SpaceX/Seattle
Mission
Operational Commercial Communications
Bus & Motor
STARLINK V2M, Unknown motor
Mass
730 kg wet, ~700 kg dry
Launch date (UTC)
2024-04-17 (2 years ago)
Launch vehicle
FALCON 9
Launch site
Air Force Eastern Test Range (AFETR)
Object type
Payload
Rocket body
Debris
Shape & HBR
Box + 2 Pan, 17.7 m
Radar Cross Section
33.884 m², Large (>1 m²)

Expand to show TLE details & history
Last TLE update: 2 days ago

TLE from 2 days ago
0 STARLINK-31392
1 59530U 24073V   26171.14077750  .00008420  00000-0  31509-3 0  9991
2 59530  43.0006  99.4715 0001485 276.1318  83.9364 15.27585788121843
Epoch: 2026-06-20T03:22Z
TLE epoch observation values (Epoch: 2026-06-20T03:22:43.176Z)
Latitude
-0.00007°
Longitude
140.43186°
Altitude
482.7 km
Speed
7.626 km/s
True Right ascension
06h 37m 53s
True Declination
0° 00' 00"
Sunlit
Object was in daylight at epoch
Visualization orbit readout
Latitude
Unknown
Longitude
Unknown
Altitude
Unknown
Speed
Unknown
Apparent Right ascension
Unknown
Apparent Declination
Unknown
Sunlit
N/A
Visualization observer readout
Local Sidereal Time
14:06:36
Azimuth
Unknown
Elevation
Unknown
Doppler factor
Unknown
Orbital elements
Apogee altitude
485.996 km
Perigee altitude
483.958 km
Semi-major axis
6,863.114 km
Eccentricity
0.00015
Inclination
43.0006°
RAAN
99.4715°
Arg. of periapsis
276.1318°
True anomaly
83.95332°
Mean anomaly
83.9364°
Eccentric anomaly
83.94486°
Mean motion
3.81734 °/min
Orbital period
94.31 mins
BSTAR
0.00031509
Loading maneuver chart data...
Computing Atmospheric mass density...
Loading historical data...
Loading historical data...
Loading historical data...
Loading historical data...
Loading historical data...
Loading historical data...
Loading historical data...

Documentation

Showing up to 5 results
|